Location: Kalamazoo
(42.2920°N, 85.5870°W)
Time: 10:05:37
(UTC-04:00)

Daily predictions for brighter satellites

Satellite Brightness Start Highest point End
(mag) Time Altitude Azimuth Time Altitude Azimuth Time Altitude Azimuth
SPOT 5 4.2 21:28:28 10° ESE 21:32:55 28° ENE 21:37:26 10° N
NOSS 2-2 (C) 3.5 21:29:32 10° SSW 21:33:35 69° ESE 21:38:18 10° NE
H-2A R/B 2.7 21:39:20 10° SE 21:43:22 40° ENE 21:47:19 10° N
COSMOS 2487 4.4 21:41:37 10° NNE 21:44:07 17° ENE 21:46:36 10° ESE
ATLAS 5 CENTAUR R/B 2.6 21:39:26 10° NW 21:45:28 76° WSW 21:51:54 10° SSE
OPS 6432 4.2 21:42:14 10° SSW 21:45:42 82° SE 21:48:49 10° NE
Envisat 3.3 21:44:07 10° SE 21:49:00 51° ENE 21:53:56 10° N
USA 186 3.4 21:47:06 10° SSW 21:49:57 34° W 21:53:00 10° NNW
Cosmos 1624 Rocket 4.1 21:46:23 10° SSW 21:51:40 86° WNW 21:57:01 10° NNE
ERBS 3.4 21:48:41 10° WNW 21:51:59 40° SW 21:55:14 10° SSE
NOSS 2-2 (E) 3.9 21:47:53 10° SW 21:52:03 73° NW 21:57:00 10° NNE
COSMOS 2406 3.4 21:46:27 10° NNW 21:52:13 77° WSW 21:57:54 10° SSE
PSLV R/B 4.4 21:49:37 10° W 21:52:43 32° SSW 21:55:41 11° SE
BREEZE-M DEB (TANK) 4.5 21:34:12 10° WNW 21:53:34 67° NNE 21:58:07 10° E
Cosmos 2074 Rocket 4.1 21:48:31 10° S 21:54:49 87° W 22:01:07 10° N
CZ-4 DEB 3.9 21:59:10 10° S 22:02:12 42° W 22:05:15 10° NNW
Cosmos 1610 Rocket 4.5 21:58:00 10° S 22:04:07 77° E 22:10:22 10° N
Cosmos 2278 Rocket 2.7 21:59:20 10° S 22:04:31 37° ESE 22:09:42 10° NE
Cosmos 407 Rocket 3.5 22:01:06 10° NNW 22:06:24 83° ENE 22:11:43 10° SSE
H-2A R/B 4.0 22:04:02 10° E 22:07:14 16° ENE 22:10:24 10° NNE
Cosmos 1825 2.8 22:04:48 10° SSE 22:08:19 37° E 22:11:52 10° NNE
Cosmos 1844 3.8 22:03:00 10° S 22:08:40 63° ESE 22:14:24 10° NNE
Okean 2 Rocket 4.1 22:05:29 12° SE 22:08:48 27° E 22:12:32 10° NNE
YAOGAN 6 3.6 22:06:45 15° SE 22:09:06 30° ENE 22:12:13 10° N
ERS-1 Rocket 3.3 22:04:21 10° S 22:09:21 70° WSW 22:14:25 10° NNW
Cosmos 1844 Rocket 2.7 22:04:27 10° SSW 22:10:06 86° ESE 22:15:47 10° NNE
Nadezhda 3 Rocket 4.1 22:03:51 10° N 22:10:10 63° E 22:16:27 10° SSE
Cosmos 1408 3.2 22:06:51 10° SSE 22:10:15 37° E 22:13:39 10° NNE
Cosmos 1674 Rocket 3.7 22:05:59 10° N 22:10:27 77° W 22:14:53 10° S
BREEZE-M DEB (TANK) 3.4 22:08:41 10° W 22:11:10 54° NNW 22:16:46 10° ENE
EO 1 Delta rocket 4.3 22:08:32 10° NNE 22:14:52 70° E 22:19:56 10° S
Cosmos 1140 Rocket 4.2 22:10:14 10° N 22:15:02 38° ENE 22:18:41 16° SE
Cosmos 1242 Rocket 3.9 22:12:20 10° NNE 22:15:24 25° ENE 22:17:13 17° ESE
Cosmos 1452 Rocket 3.5 22:10:33 10° S 22:15:42 61° ESE 22:20:56 10° NNE
Sich 1 Rocket 3.7 22:12:30 10° S 22:17:05 90° S 22:21:42 10° N
MetOp-A 4.3 22:13:35 13° SSE 22:18:21 59° ENE 22:23:36 10° N
Cosmos 1190 Rocket 4.4 22:14:55 10° NNW 22:20:02 60° WSW 22:25:08 10° S
Okean 3 3.8 22:16:29 10° N 22:20:40 50° ENE 22:23:41 17° SSE
SPOT 1/Viking Rocket 4.1 22:18:20 16° SE 22:22:08 43° ENE 22:27:03 10° N
Cosmos 2082 Rocket 3.5 22:18:31 10° N 22:23:20 27° NE 22:27:07 14° ESE
Cosmos 1862 3.3 22:20:04 10° S 22:24:07 71° E 22:28:12 10° NNE
USA 234 4.2 22:19:24 10° ENE 22:24:21 23° ESE 22:29:18 10° S
NOSS 5 (C) 4.1 22:21:33 10° SSW 22:24:58 69° SE 22:28:04 10° NE
Cosmos 1782 Rocket 3.8 22:21:11 11° SSE 22:25:15 50° E 22:29:36 10° NNE
CZ-4B R/B 3.9 22:24:15 10° NNE 22:28:52 38° E 22:32:07 17° SSE
Cosmos 2341 Rocket 4.0 22:26:52 10° S 22:33:08 73° E 22:39:24 10° NNE
DNEPR-1 R/B 4.3 22:29:40 10° NNW 22:35:05 50° NE 22:37:55 22° ESE
Cosmos 2297 4.3 22:34:15 15° SSE 22:38:23 36° ESE 22:43:34 10° NE
Cosmos 1975 Rocket 3.0 22:35:52 10° N 22:40:11 70° E 22:42:49 23° SSE
Cosmos 1184 Rocket 2.7 22:39:00 18° S 22:41:20 79° E 22:44:41 10° NNE
CZ-4 SHROUD 3.2 22:41:28 27° S 22:43:01 79° WSW 22:46:07 10° NNW
Meteor 1-27 Rocket 4.1 22:38:33 10° NNW 22:44:03 63° W 22:49:19 11° S
Timation 2 Rocket 4.0 22:39:57 10° NNW 22:45:56 64° ENE 22:49:32 24° SE
Cosmos 1606 3.8 22:43:29 10° NNW 22:47:14 44° W 22:50:39 12° SSW
CZ-4C R/B 4.5 22:46:35 24° ESE 22:47:48 30° ENE 22:51:23 10° N
Cosmos 1850 Rocket 4.3 22:42:50 10° NNW 22:48:05 56° ENE 22:50:56 26° SE
NOAA 11 4.3 22:45:02 23° SSE 22:48:30 64° ENE 22:53:57 10° N
Cosmos 1908 Rocket 4.5 22:46:00 10° SSW 22:50:16 50° WNW 22:54:36 10° N
SL-8 Rocket 4.1 22:45:50 17° SSE 22:50:42 60° E 22:56:50 10° NNE
PSLV R/B 3.7 22:50:18 26° SSW 22:51:39 50° W 22:54:32 10° NNW
Cosmos 1378 Rocket 4.2 22:49:15 10° NNW 22:53:27 52° W 22:56:50 15° SSW
Cosmos 1174 4.4 22:51:36 10° NW 22:54:30 32° WSW 22:55:34 24° SSW
Landsat 7 4.4 22:52:47 28° ESE 22:54:48 43° ENE 22:59:18 10° N
Cosmos 1954 Rocket 4.3 22:50:46 10° NNW 22:55:55 63° WSW 22:59:23 21° S
Cosmos 2084 3.6 22:55:06 10° SW 22:58:56 62° NW 23:02:44 10° NNE
USA 245 3.1 23:00:54 39° S 23:02:00 74° W 23:05:56 10° NNW
BREEZE-M TANK 4.0 22:50:24 10° W 23:05:38 68° N 23:09:01 14° ENE
Cosmos 1238 Rocket 3.9 23:03:48 10° NNW 23:06:46 34° W 23:08:58 18° SSW
BREEZE-M DEB (TANK) 3.9 23:05:47 10° NW 23:07:31 21° N 23:10:02 10° NE
Cosmos 1741 Rocket 3.9 23:02:37 10° NNW 23:07:53 81° ENE 23:10:12 34° SSE
ISS -3.2 23:04:58 10° WSW 23:08:14 75° NNW 23:11:30 10° NE
USA 229 DEB 4.1 23:01:45 10° NNW 23:08:45 58° NE 23:12:49 26° ESE
USA 229 4.1 23:01:51 10° NNW 23:08:51 57° NE 23:12:55 26° ESE
Terra 2.4 23:09:02 33° ESE 23:10:32 43° ENE 23:15:03 10° N
SPOT 5 4.2 23:06:18 12° SSW 23:10:45 40° W 23:15:47 10° NNW
Cosmos 2151 Rocket 3.6 23:13:00 40° SSE 23:14:26 62° E 23:18:56 10° NNE
H-2A R/B 4.4 23:16:31 10° SW 23:19:31 18° W 23:22:29 10° NW
COSMOS 2487 4.1 23:16:36 10° NW 23:19:48 30° WSW 23:21:04 23° SW
Cosmos 864 Rocket 4.4 23:18:36 29° S 23:21:49 70° E 23:27:57 10° NNE
Meteor 1-20 Rocket 4.5 23:22:26 38° SE 23:24:00 49° E 23:29:18 10° NNE
SL-08 RB Rocket 3.9 23:23:16 35° S 23:25:07 66° W 23:29:44 10° NNW
Cosmos 1110 Rocket 4.4 23:25:13 40° ESE 23:25:49 41° ESE 23:30:42 10° NE
Okean 1 4.1 23:22:43 10° N 23:26:30 36° ENE 23:26:36 36° E
ARGOS 3.5 23:23:56 27° S 23:26:47 58° W 23:32:05 10° NNW
APEX 3.7 23:24:54 21° SW 23:27:29 70° WNW 23:32:34 10° NNE
Cosmos 2366 rocket 3.9 23:26:54 27° S 23:30:33 87° E 23:36:56 10° N
ASTEX 1 3.9 23:26:51 10° NNE 23:31:31 40° E 23:31:59 39° ESE
Meteor 1-25 Rocket 4.2 23:31:42 38° S 23:34:01 71° E 23:39:50 10° NNE
Cosmos 1300 Rocket 3.9 23:39:23 47° E 23:39:23 47° E 23:43:35 10° NNE
IGS 5A 3.3 23:39:53 70° SE 23:40:16 78° ENE 23:44:27 10° N
Okean 1 Rocket 3.7 23:40:29 41° E 23:40:29 41° E 23:44:30 10° NNE
Okean 1-7 Rocket 4.1 23:40:58 10° N 23:45:18 44° ENE 23:45:24 44° E
H-2A R/B 2.2 23:44:16 44° S 23:46:02 75° WSW 23:51:23 10° NNW
Meteor 1-18 Rocket 4.3 23:40:45 10° NNW 23:46:40 80° W 23:48:48 42° S
Cosmos 1833 Rocket 2.6 23:42:52 10° NNW 23:48:32 87° WSW 23:49:59 52° SSE
Cosmos 2278 Rocket 3.8 23:43:30 10° WSW 23:48:35 34° WNW 23:53:44 10° N
Spot 2 4.2 23:45:37 10° NNE 23:49:34 54° E 23:49:34 54° E
